STARLINK-32032, 60077

Orbit data source: Space-Track

STARLINK-32032, 60077 is a payload satellite owned by SpaceX/Seattle (US) in LEO that was launched on Wed, 19 Jun 2024 UTC via an FALCON 9 launch vehicle from the Air Force Western Test Range (AFWTR). Payload-class satellites include a variety of spacecraft equipped with specific instruments for various scientific and technological missions. These include communications satellites like Starlink; space stations such as the ISS; scientific satellites like the Hubble; Earth observation satellites from companies like Planet Labs, Umbra, and HawkEye 360; GPS; miniature CubeSats for education and research; and military/defense satellites.

Loading next visibility...
Identifier
60077, 2024-113U
Orbit
LEO
Country
Flag of USUS
Related business
Manufacturer
SpaceX/Seattle
Mission
Operational Commercial Communications
Bus & Motor
STARLINK V2M, Unknown motor
Mass
730 kg wet, ~700 kg dry
Launch date (UTC)
2024-06-19 (2 years ago)
Launch vehicle
FALCON 9
Launch site
Air Force Western Test Range (AFWTR)
Object type
Payload
Rocket body
Debris
Shape & HBR
Box + 2 Pan, 17.7 m
Radar Cross Section
33.884 m², Large (>1 m²)

Expand to show TLE details & history
Last TLE update: 12 hours ago

TLE from 12 hours ago
0 STARLINK-32032
1 60077U 24113U   26171.35407740  .00001904  00000-0  67470-4 0  9990
2 60077  53.1598 240.4578 0001064  84.5237 275.5887 15.34395491112979
Epoch: 2026-06-20T08:29Z
TLE epoch observation values (Epoch: 2026-06-20T08:29:52.287Z)
Latitude
-0.00001°
Longitude
-155.57998°
Altitude
463.547 km
Speed
7.636 km/s
True Right ascension
16h 01m 49s
True Declination
0° 00' 00"
Sunlit
Object was in full shadow at epoch
Visualization orbit readout
Latitude
Unknown
Longitude
Unknown
Altitude
Unknown
Speed
Unknown
Apparent Right ascension
Unknown
Apparent Declination
Unknown
Sunlit
N/A
Visualization observer readout
Local Sidereal Time
07:13:18
Azimuth
Unknown
Elevation
Unknown
Doppler factor
Unknown
Orbital elements
Apogee altitude
463.701 km
Perigee altitude
462.246 km
Semi-major axis
6,841.111 km
Eccentricity
0.00011
Inclination
53.1598°
RAAN
240.4578°
Arg. of periapsis
84.5237°
True anomaly
275.57657°
Mean anomaly
275.5887°
Eccentric anomaly
275.58263°
Mean motion
3.83578 °/min
Orbital period
93.85 mins
BSTAR
0.00006747
Loading maneuver chart data...
Computing Atmospheric mass density...

Documentation

Showing up to 5 results
|